ALCOMSAT 1

Last updated on March 5, 2021, 6:35 a.m. UTC

1 43039U 17078A   21063.83009351 -.00000197  00000-0  00000-0 0  9991
2 43039   0.0326 218.7701 0002048 131.2016  86.8624  1.00272290 11926
UTC
Height (km)
Latitude
Longitude
Inclination
Orbital Period
UTC large
Height (km)
Speed (km/s)
/
Latitude / Longitude
Inclination (degrees)
Orbital Period (minutes)
Azimuth
Elevation
Range (km)
Doppler Factor
iOS Compass Heading
iOS Angle

Next 30 passes for location: Hong Kong

Rise time Rise Azimuth (degrees) Set time Set Azimuth (degrees) Duration Max altitude (degrees)

No matching passes for this satellites